Tetuan, Morocco

2:41 AM WEST on May 01, 2017 (GMT +0100)
Tetuan

Weather History for GMTN - September, 2013

Change the Weather History Date:

Friday, September 20, 2013

  Actual Average Record
Temperature  
Mean Temperature 70 °F -  
Max Temperature 79 °F 74 °F 82 °F (1996)
Min Temperature 60 °F 63 °F 60 °F (2013)
Cooling Degree Days 4    
Growing Degree Days 20 (Base 50)    
Moisture  
Dew Point 64 °F    
Average Humidity 78    
Maximum Humidity 94    
Minimum Humidity 57    
Precipitation  
Precipitation 0.00 in - - ()
Sea Level Pressure  
Sea Level Pressure 29.99 in    
Wind  
Wind Speed 8 mph ()    
Max Wind Speed 18 mph    
Max Gust Speed -    
Visibility 3.2 miles    
Events      
Averages and records for this station are not official NWS values.
T = Trace of Precipitation, MM = Missing Value Source: Averaged Metar Reports

Daily Weather History Graph

Daily Weather History Graph

Search for Another Location

Airport or City:

Trip Planner

Search our weather history database for the weather conditions in past years. The results will help you decide how hot, cold, wet, or windy it might be!

Date:

Astronomy

Sep. 20, 2013 Rise Set
Actual Time 7:07 AM WEST 7:21 PM WEST
Civil Twilight 6:42 AM WEST 7:46 PM WEST
Nautical Twilight 6:12 AM WEST 8:16 PM WEST
Astronomical Twilight 5:42 AM WEST 8:46 PM WEST
Moon 7:51 PM WEST (9/20) 8:03 AM WEST (9/20)
Length of Visible Light 13h 04m
Length of Day
12h 13m
Full, 99% of the Moon is Illuminated
Sep 20
Full
Sep 27
Last Quarter
Oct 5
New
Oct 12
First Quarter
Oct 19
Full

Hourly Weather History & Observations

Time (WEST) Temp. Dew Point Humidity Pressure Visibility Wind Dir Wind Speed Gust Speed Precip Events Conditions
12:00 AM 68.0 °F 60.8 °F 78% 29.95 in 0.7 mi South 8.1 mph - N/A   Unknown
1:00 AM 68.0 °F 60.8 °F 78% 29.95 in 0.7 mi SSW 9.2 mph - N/A   Unknown
2:00 AM 66.2 °F 60.8 °F 83% 29.95 in 0.8 mi SSW 8.1 mph - N/A   Unknown
3:00 AM 64.4 °F 60.8 °F 88% 29.92 in 0.7 mi Calm Calm - N/A   Unknown
4:00 AM 64 °F 60 °F 83% 29.94 in 1 mi SSW 4.6 mph - -  
4:00 AM 64.4 °F 60.8 °F 88% 29.92 in 0.6 mi SSW 4.6 mph - N/A   Unknown
5:00 AM 64.4 °F 59.0 °F 83% 29.92 in 0.7 mi WSW 5.8 mph - N/A   Unknown
6:00 AM 62.6 °F 59.0 °F 88% 29.95 in 0.7 mi SSW 4.6 mph - N/A   Unknown
7:00 AM 64 °F 59 °F 79% 29.97 in 1 mi SSW 6.9 mph - -  
7:00 AM 64.4 °F 59.0 °F 83% 29.95 in 0.6 mi SSW 6.9 mph - N/A   Unknown
8:00 AM 64.4 °F 59.0 °F 83% 29.98 in 5.0 mi SSW 5.8 mph - N/A   Unknown
9:00 AM 69.8 °F 60.8 °F 73% 29.98 in 5.0 mi Variable 2.3 mph - N/A   Unknown
10:00 AM 75 °F 65 °F 63% 30.01 in 6 mi ENE 5.8 mph - -  
10:00 AM 75.2 °F 66.2 °F 73% 30.01 in - ENE 5.8 mph - N/A   Clear
11:00 AM 77.0 °F 68.0 °F 74% 30.01 in - East 16.1 mph - N/A   Clear
12:00 PM 77.0 °F 68.0 °F 74% 30.01 in 6.2 mi East 16.1 mph - N/A   Partly Cloudy
1:00 PM 78 °F 69 °F 66% 30.03 in 6 mi East 17.3 mph - -   Scattered Clouds
1:00 PM 78.8 °F 68.0 °F 69% 30.01 in 6.2 mi East 17.3 mph - N/A   Partly Cloudy
2:00 PM 77.0 °F 68.0 °F 74% 30.01 in 6.2 mi East 18.4 mph - N/A   Partly Cloudy
3:00 PM 78.8 °F 68.0 °F 69% 30.01 in 6.2 mi ENE 13.8 mph - N/A   Partly Cloudy
4:00 PM 78 °F 66 °F 57% 30.02 in 5 mi ENE 15.0 mph - -   Scattered Clouds
4:00 PM 77.0 °F 66.2 °F 69% 30.01 in 5.0 mi ENE 15.0 mph - N/A   Partly Cloudy
5:00 PM - - N/A% - - East 13.8 mph - N/A   Unknown
6:00 PM 75.2 °F 66.2 °F 73% 30.01 in 5.0 mi East 12.7 mph - N/A   Partly Cloudy
7:00 PM 74 °F 68 °F 76% 30.02 in 5 mi East 11.5 mph - -   Scattered Clouds
7:00 PM 73.4 °F 68.0 °F 83% 30.01 in 5.0 mi East 11.5 mph - N/A   Partly Cloudy
8:00 PM 71.6 °F 68.0 °F 88% 30.01 in 4.3 mi ENE 9.2 mph - N/A   Partly Cloudy
9:00 PM 71.6 °F 68.0 °F 88% 30.04 in 4.3 mi ENE 11.5 mph - N/A   Partly Cloudy
10:00 PM 71 °F 68 °F 87% 30.07 in 1 mi East 10.4 mph - -   Scattered Clouds
10:00 PM 71.6 °F 68.0 °F 88% 30.06 in 0.7 mi East 10.4 mph - N/A   Partly Cloudy
11:00 PM 69.8 °F 68.0 °F 94% 30.06 in 0.7 mi East 10.4 mph - N/A   Unknown